FW0209 Weather Reports


time (UTC)temp
C
wind
direction
speed
KPH
gust
KPH
rain 1hr
cm
rain 24hr
cm
rain mn
cm
humidity
%
barometer
mb
20260505223022 12 176 0.0 0.0 0.00 2.11 0.53 78 1018.3
20260505221521 12 176 0.0 0.0 0.00 2.11 0.53 78 1018.3
20260505220034 12 175 0.0 0.0 0.00 2.11 0.53 78 1018.4
20260505214537 12 177 0.0 0.0 0.00 2.11 0.53 79 1018.4
20260505213024 12 176 0.0 0.0 0.00 2.11 0.53 78 1018.6
20260505211522 12 176 0.0 0.0 0.00 2.11 0.53 78 1018.5
20260505210023 12 175 0.0 0.0 0.00 2.11 0.53 78 1018.5
20260505204521 12 176 0.0 0.0 0.00 2.11 0.53 78 1018.6
20260505203017 12 175 0.0 0.0 0.00 2.11 0.53 78 1018.6
20260505201517 12 176 0.0 0.0 0.00 2.11 0.53 78 1018.6
20260505200016 13 179 0.0 0.0 0.00 2.11 0.53 77 1018.6
20260505194515 13 180 0.0 0.0 0.00 2.11 0.53 76 1018.4
20260505193032 13 184 0.0 0.0 0.00 2.11 0.53 75 1018.0
20260505191525 13 190 0.0 0.0 0.00 2.11 0.53 74 1017.9
20260505190042 13 189 0.0 0.0 0.00 2.11 0.53 74 1018.0
20260505184534 13 187 0.0 0.0 0.00 2.11 0.53 73 1017.8
20260505183021 13 195 0.0 0.0 0.00 2.11 0.53 72 1017.9
20260505181522 14 195 0.0 0.0 0.00 2.11 0.53 72 1017.8
20260505180017 14 199 0.0 0.0 0.00 2.11 0.53 71 1017.8
20260505174514 14 196 0.0 0.0 0.00 2.11 0.53 71 1018.0
20260505173015 15 202 0.0 0.0 0.00 2.11 0.53 71 1017.8
20260505171532 15 202 0.0 0.0 0.00 2.11 0.53 71 1017.6
20260505170021 15 200 0.0 0.0 0.00 2.11 0.53 71 1017.8
20260505164523 15 202 0.0 0.0 0.00 2.11 0.53 70 1017.9
20260505163041 15 202 0.0 0.0 0.00 2.11 0.53 70 1017.9
20260505161521 15 203 0.0 0.0 0.00 2.11 0.53 70 1018.0
20260505153019 15 204 0.0 0.0 0.00 2.11 0.53 69 1018.4
20260505151518 15 197 0.0 0.0 0.00 2.11 0.53 67 1018.5
20260505124514 15 275 3.2 14.5 0.00 2.11 0.53 73 1019.1
20260505123051 13 182 4.8 6.4 0.00 2.11 0.53 73 1019.2
20260505121528 13 175 4.8 9.7 0.00 2.11 0.53 76 1019.5
20260505120030 13 178 4.8 11.3 0.00 2.11 0.53 76 1019.5
20260505114526 13 173 0.0 6.4 0.00 2.11 0.53 76 1019.5
20260505113023 13 171 6.4 12.9 0.00 2.11 0.53 75 1019.6
20260505111526 13 179 3.2 14.5 0.00 2.11 0.53 75 1019.6
20260505101549 12 217 0.0 0.0 0.00 2.11 0.53 82 1019.7
20260505100028 12 229 6.4 9.7 0.00 2.11 0.53 83 1019.9
20260505094527 12 228 4.8 9.7 0.00 2.11 0.53 83 1019.7
20260505093018 12 228 6.4 11.3 0.00 2.11 0.53 84 1019.6
20260505091542 12 229 0.0 0.0 0.00 2.11 0.53 85 1019.6
20260505090017 12 232 0.0 0.0 0.00 2.11 0.53 85 1019.5
20260505084535 11 224 0.0 0.0 0.10 2.11 0.53 87 1019.5
20260505083022 11 226 0.0 0.0 0.20 2.11 0.53 87 1019.5
20260505081519 11 215 0.0 0.0 0.41 2.11 0.53 87 1019.7
20260505080016 11 213 0.0 0.0 0.61 2.11 0.53 87 1019.7
20260505074517 11 215 0.0 0.0 0.79 2.01 0.51 86 1019.6
20260505073016 10 217 0.0 0.0 0.79 1.91 0.48 86 1019.6
20260505071536 11 217 0.0 0.0 0.61 1.70 0.43 85 1019.5
20260505070021 11 218 0.0 0.0 0.41 1.50 0.38 85 1019.7
20260505064538 11 214 0.0 0.0 0.20 1.19 0.30 85 1019.5
20260505063019 11 213 0.0 0.0 0.30 1.09 0.28 85 1019.5
20260505061515 10 214 0.0 0.0 0.30 1.09 0.28 85 1019.3
20260505060032 10 190 0.0 0.0 0.51 1.09 0.28 85 1019.3
20260505054532 11 190 0.0 0.0 0.61 0.99 0.25 85 1019.2
20260505053028 10 221 0.0 0.0 0.51 0.79 0.20 85 1019.0
20260505051526 11 189 0.0 0.0 0.61 0.79 0.20 85 1018.9
20260505041521 11 219 3.2 8.0 0.20 0.20 0.05 82 1018.6
20260505040014 11 219 6.4 12.9 0.00 0.00 0.00 81 1018.4
20260505034536 11 217 3.2 9.7 0.00 0.00 0.00 80 1018.5
20260505033026 11 218 4.8 8.0 0.00 0.00 0.00 79 1018.5
20260505031525 11 216 0.0 3.2 0.00 0.00 0.00 79 1018.5
20260505030043 11 217 0.0 1.6 0.00 0.00 0.00 79 1018.5
20260505024520 11 217 3.2 6.4 0.00 0.00 0.00 79 1018.7
20260505023018 11 215 3.2 6.4 0.00 0.00 0.00 80 1018.9
20260505021515 11 218 1.6 4.8 0.00 0.00 0.00 80 1018.9
20260505020025 11 5 6.4 9.7 0.00 0.00 0.00 80 1019.2
20260505014523 11 14 1.6 8.0 0.00 0.00 0.00 81 1019.4
20260505013023 11 17 3.2 12.9 0.00 0.00 0.00 81 1019.4
20260505011530 11 360 11.3 16.1 0.00 0.00 0.00 80 1019.6
20260505010024 11 216 3.2 11.3 0.00 0.00 0.00 80 1019.7
20260505004517 11 217 6.4 9.7 0.00 0.00 0.00 80 1019.7
20260505003025 11 222 4.8 9.7 0.00 0.00 0.00 81 1019.9
20260505001525 11 221 0.0 6.4 0.00 0.00 0.00 81 1020.1
20260505000018 11 220 6.4 9.7 0.00 0.00 0.00 80 1020.3
20260504234530 11 226 8.0 11.3 0.00 0.00 0.00 79 1020.3
20260504233017 11 236 6.4 11.3 0.00 0.00 0.00 78 1020.4
20260504231531 11 239 4.8 12.9 0.00 0.00 0.00 78 1020.5
20260504230029 11 243 4.8 12.9 0.00 0.00 0.00 77 1020.8
20260504224532 11 253 4.8 8.0 0.00 0.00 0.00 77 1020.7